THOR ABLESTAR DEB, 357

Orbit data source: Space-Track

THOR ABLESTAR DEB, 357 is space debris in LEO originally from a launch on Thu, 29 Jun 1961 UTC launched from the Air Force Eastern Test Range (AFETR). Debris objects in space refer to the collection of defunct objects orbiting the Earth. Examples of debris include non-operational satellites, rocket bodies, and fragments generated from explosions, collisions, or faulty payload assembly.

Loading next visibility...
Identifier
357, 1961-015DX
Orbit
LEO
Country
Flag of USUS
Related business
Manufacturer
Unknown
Mission
Spacecraft
Bus & Motor
Unknown
Mass
Unknown
Launch date (UTC)
1961-06-29 (65 years ago)
Launch vehicle
Unknown
Launch site
Air Force Eastern Test Range (AFETR)
Object type
Payload
Rocket body
Debris
Shape & HBR
Unknown shape, 0.1 m
Radar Cross Section
Small (<0.1 m²)

Expand to show TLE details & history
Last TLE update: 15 hours ago

TLE from 15 hours ago
0 THOR ABLESTAR DEB
1 00357U 61015DX  26119.11450839  .00000687  00000-0  43779-3 0  9992
2 00357  66.8100   9.7370 0017170 250.6691 109.2541 14.09493251288940
Epoch: 2026-04-29T02:44Z
TLE epoch observation values (Epoch: 2026-04-29T02:44:53.524Z)
Latitude
-0.00005°
Longitude
111.43385°
Altitude
867.32 km
Speed
7.417 km/s
True Right ascension
00h 38m 56s
True Declination
0° 00' 00"
Sunlit
Object was in daylight at epoch
Visualization orbit readout
Latitude
Unknown
Longitude
Unknown
Altitude
Unknown
Speed
Unknown
Apparent Right ascension
Unknown
Apparent Declination
Unknown
Sunlit
N/A
Visualization observer readout
Local Sidereal Time
01:43:33
Azimuth
Unknown
Elevation
Unknown
Doppler factor
Unknown
Orbital elements
Apogee altitude
871.911 km
Perigee altitude
847.057 km
Semi-major axis
7,237.621 km
Eccentricity
0.00172
Inclination
66.81°
RAAN
9.737°
Arg. of periapsis
250.6691°
True anomaly
109.43972°
Mean anomaly
109.2541°
Eccentric anomaly
109.34692°
Mean motion
3.52492 °/min
Orbital period
102.13 mins
BSTAR
0.00043779
Loading maneuver chart data...
Computing Atmospheric mass density...

Documentation

Showing up to 5 results
|